Погода в Алейникове

Россия / Белгородская область     50°28′07″N   38°49′58″E
темп.,
°C
ветер,
м/с
пор.,
м/с
влажн.,
%
обл.,
%
осадки,
мм/ч
давл.,
гПа
погр.,
м
8 мая, сб
сб800:00+9юв48705 0.0 1016127
03:00+8юв51281100 0.0 1015254
06:00+9юв61578100 0.0 1013402
09:00+14ююв8126898 0.0 1012646
12:00+15ю81266100 0.0 10101192
15:00+15ю71375100 0.3 10091346
18:00+12зюз41392100 1.4 1007552
21:00+12зюз51095100 3.1 1008607
9 мая, вс
вс900:00+8з7994100 4.1 1010542
03:00+5зсз61193100 5.2 1012733
06:00+5сз61086100 0.1 1013951
09:00+7сз81076100 0.2 10151050
12:00+7сз71072100 0.0 10161172
15:00+11ссз8105297 0.1 10172039
18:00+9ссз7106595 0.1 10191515
21:00+7ссз51171100 0.1 1022545
10 мая, пн
пн1000:00+4ссз411785 0.0 1023379
03:00+4сз51382100 0.0 1024340
06:00+5ссз6157773 0.0 1024477
09:00+10с814609 0.0 10241535
12:00+12с101449100 0.0 10221748
15:00+13с91555100 0.0 10211775
18:00+9ссв101665100 0.1 10211103
21:00+9ссв112069100 0.3 1019879
11 мая, вт
вт1100:00+9ссв101987100 1.4 1018733
03:00+9ссв91892100 2.4 1018599
06:00+9ссв91795100 2.4 1018746
09:00+9в61091100 3.7 1020750
12:00+11в8116872 0.1 10211359
15:00+12в9136494 0.1 10221691
18:00+11всв610700 0.1 10221009
21:00+7в411866 0.1 1022244
12 мая, ср
ср1200:00+7всв4886100 0.0 1022183
03:00+7в41085100 0.0 1021243
06:00+7вюв398986 0.0 1021288
09:00+13вюв576813 0.0 1021772
12:00+16вюв6754100 0.1 10201942
15:00+17вюв5753100 0.1 10191717
18:00+16вюв366696 0.0 1018242
21:00+13вюв3777100 0.3 1018123